KD7KCN-5 Weather Reports


Display with metric or nautical units.
time (UTC)temp
F
wind
direction
speed
MPH
gust
MPH
rain 1hr
in
rain 24hr
in
rain mn
in
humidity
%
barometer
mb
20260502224157 70 186 2.0 16.0 0.00 0.00 0.00 11 1014.9
20260502223157 70 180 12.0 18.0 0.00 0.00 0.00 12 1015.2
20260502222156 72 188 12.0 19.0 0.00 0.00 0.00 12 1015.4
20260502221157 72 151 2.0 11.0 0.00 0.00 0.00 12 1015.5
20260502220156 72 221 3.0 9.0 0.00 0.00 0.00 12 1015.7
20260502215157 71 0 0.0 12.0 0.00 0.00 0.00 11 1015.9
20260502214156 70 181 8.0 17.0 0.00 0.00 0.00 11 1016.1
20260502213157 70 171 8.0 25.0 0.00 0.00 0.00 12 1016.2
20260502212157 70 149 12.0 21.0 0.00 0.00 0.00 12 1016.4
20260502211157 70 83 1.0 20.0 0.00 0.00 0.00 14 1016.4
20260502210157 69 0 0.0 17.0 0.00 0.00 0.00 14 1016.7
20260502205157 68 159 11.0 19.0 0.00 0.00 0.00 13 1016.9
20260502204157 69 156 10.0 19.0 0.00 0.00 0.00 13 1017.1
20260502203157 68 147 14.0 22.0 0.00 0.00 0.00 1017.2
20260502202157 68 182 13.0 20.0 0.00 0.00 0.00 13 1017.4
20260502201158 66 137 8.0 18.0 0.00 0.00 0.00 13 1017.6
20260502200157 67 127 12.0 20.0 0.00 0.00 0.00 13 1017.6
20260502195157 68 149 4.0 21.0 0.00 0.00 0.00 12 1017.7
20260502194157 68 196 8.0 19.0 0.00 0.00 0.00 15 1017.8
20260502193157 69 177 9.0 19.0 0.00 0.00 0.00 13 1018.0
20260502191157 67 114 8.0 18.0 0.00 0.00 0.00 16 1018.2
20260502190159 67 119 3.0 23.0 0.00 0.00 0.00 16 1018.5
20260502185157 67 146 19.0 28.0 0.00 0.00 0.00 15 1018.7
20260502184157 68 142 16.0 25.0 0.00 0.00 0.00 16 1018.8
20260502183157 67 119 9.0 21.0 0.00 0.00 0.00 17 1019.0
20260502182157 66 138 7.0 22.0 0.00 0.00 0.00 16 1019.2
20260502180157 65 146 13.0 23.0 0.00 0.00 0.00 17 1019.3
20260502170159 64 122 9.0 28.0 0.00 0.00 0.00 17 1019.6
20260502164157 65 121 16.0 24.0 0.00 0.00 0.00 18 1019.6
20260502163157 65 113 18.0 24.0 0.00 0.00 0.00 17 1019.7
20260502161157 63 149 12.0 24.0 0.00 0.00 0.00 17 1019.7
20260502160157 64 125 6.0 15.0 0.00 0.00 0.00 20 1019.7
20260502152157 63 30 1.0 8.0 0.00 0.00 0.00 25 1019.1
20260502150157 62 346 4.0 10.0 0.00 0.00 0.00 26 1019.1
20260502130158 51 327 9.0 14.0 0.00 0.00 0.00 30 1018.4
20260502123158 51 331 10.0 14.0 0.00 0.00 0.00 31 1018.4
20260502120158 51 329 9.0 13.0 0.00 0.00 0.00 29 1018.5
20260502115158 52 325 7.0 11.0 0.00 0.00 0.00 29 1018.5
20260502113159 51 333 2.0 11.0 0.00 0.00 0.00 29 1018.7
20260502112158 52 338 6.0 13.0 0.00 0.00 0.00 29 1018.7
20260502111158 52 274 6.0 14.0 0.00 0.00 0.00 29 1018.7
20260502110158 52 329 8.0 12.0 0.00 0.00 0.00 29 1018.6
20260502105158 52 262 7.0 12.0 0.00 0.00 0.00 28 1018.7
20260502104158 52 337 5.0 11.0 0.00 0.00 0.00 29 1018.7
20260502103158 52 290 7.0 13.0 0.00 0.00 0.00 29 1018.6
20260502102158 52 337 7.0 16.0 0.00 0.00 0.00 29 1018.6
20260502101158 53 338 3.0 15.0 0.00 0.00 0.00 28 1018.6
20260502100158 53 301 5.0 15.0 0.00 0.00 0.00 29 1018.5
20260502091158 53 344 3.0 11.0 0.00 0.00 0.00 27 1018.8
20260502090158 54 315 5.0 13.0 0.00 0.00 0.00 26 1018.8
20260502071158 53 286 3.0 11.0 0.00 0.00 0.00 28 1019.1
20260502070158 53 268 8.0 12.0 0.00 0.00 0.00 27 1019.0
20260502065158 53 332 3.0 13.0 0.00 0.00 0.00 27 1018.9
20260502064159 53 340 5.0 14.0 0.00 0.00 0.00 27 1018.9
20260502063159 53 268 9.0 16.0 0.00 0.00 0.00 27 1019.0
20260502062159 52 337 8.0 15.0 0.00 0.00 0.00 27 1018.9
20260502061159 52 331 7.0 14.0 0.00 0.00 0.00 27 1018.8
20260502060159 53 341 5.0 11.0 0.00 0.00 0.00 27 1018.6
20260502055159 53 355 6.0 12.0 0.00 0.00 0.00 26 1018.6
20260502054159 53 349 5.0 12.0 0.00 0.00 0.00 26 1018.6
20260502053159 53 4 9.0 17.0 0.00 0.00 0.00 25 1018.7
20260502052159 53 6 7.0 16.0 0.00 0.00 0.00 25 1018.7
20260502051159 54 7 10.0 14.0 0.00 0.00 0.00 24 1018.7
20260502050159 54 7 6.0 20.0 0.00 0.00 0.00 23 1018.6
20260502045159 54 22 11.0 18.0 0.00 0.00 0.00 23 1018.5
20260502044159 54 2 13.0 20.0 0.00 0.00 0.00 22 1018.4
20260502042159 56 17 11.0 16.0 0.00 0.00 0.00 22 1018.2
20260502040159 56 9 9.0 13.0 0.00 0.00 0.00 20 1018.0
20260502035159 57 349 5.0 10.0 0.00 0.00 0.00 20 1017.8
20260502034159 57 21 8.0 16.0 0.00 0.00 0.00 20 1017.6
20260502033159 57 7 8.0 15.0 0.00 0.00 0.00 20 1017.5
20260502032159 57 21 2.0 6.0 0.00 0.00 0.00 19 1017.3
20260502031159 58 23 3.0 10.0 0.00 0.00 0.00 19 1017.1
20260502030159 58 35 6.0 15.0 0.00 0.00 0.00 18 1017.0
20260502025159 58 64 9.0 15.0 0.00 0.00 0.00 18 1016.8
20260502024159 59 57 7.0 15.0 0.00 0.00 0.00 18 1016.7
20260502023159 59 33 7.0 14.0 0.00 0.00 0.00 18 1016.5
20260502022159 60 74 12.0 16.0 0.00 0.00 0.00 1016.3
20260502021159 60 57 8.0 16.0 0.00 0.00 0.00 17 1016.4
20260502020159 60 41 5.0 15.0 0.00 0.00 0.00 18 1016.2
20260502015159 61 54 11.0 16.0 0.00 0.00 0.00 18 1016.1
20260502014159 61 30 7.0 14.0 0.00 0.00 0.00 18 1015.9
20260502013159 62 24 10.0 17.0 0.00 0.00 0.00 19 1015.8
20260502012159 62 74 9.0 18.0 0.00 0.00 0.00 18 1015.7
20260502011159 63 79 11.0 23.0 0.00 0.00 0.00 18 1015.6
20260502010159 64 38 7.0 15.0 0.00 0.00 0.00 18 1015.6
20260502005159 63 60 14.0 23.0 0.00 0.00 0.00 17 1015.5
20260502004200 64 64 10.0 19.0 0.00 0.00 0.00 18 1015.3
20260502003200 64 31 9.0 21.0 0.00 0.00 0.00 18 1015.3
20260502002159 65 28 14.0 17.0 0.00 0.00 0.00 17 1015.2
20260502001200 66 66 10.0 14.0 0.00 0.00 0.00 15 1015.2
20260502000200 66 13 11.0 22.0 0.00 0.00 0.00 16 1015.4
20260501235200 66 49 9.0 16.0 0.00 0.00 0.00 16 1015.1
20260501232200 66 349 12.0 21.0 0.00 0.00 0.00 16 1014.9
20260501231200 66 40 15.0 22.0 0.00 0.00 0.00 16 1014.8
20260501230200 66 31 13.0 24.0 0.00 0.00 0.00 16 1014.8
20260501225201 67 352 12.0 22.0 0.00 0.00 0.00 17 1014.9